TimeEST,TemperatureF,Dew PointF,Humidity,Sea Level PressureIn,VisibilityMPH,Wind Direction,Wind SpeedMPH,Gust SpeedMPH,PrecipitationIn,Events,Conditions,WindDirDegrees,DateUTC
12:00 AM,65,62,89,29.93,16,SSW,10.4,,,,Scattered Clouds,210,2013-04-13 14:00:00
12:00 AM,66.2,62.6,88,29.92,6.2,SSW,10.4,-,N/A,,Scattered Clouds,210,2013-04-13 14:00:00
12:30 AM,66.2,60.8,83,29.92,6.2,SSW,10.4,-,N/A,,Scattered Clouds,200,2013-04-13 14:30:00
1:00 AM,65,62,85,29.91,,SSW,10.4,,,,,200,2013-04-13 15:00:00
1:00 AM,64.4,60.8,88,29.89,6.2,SSW,10.4,-,N/A,,Partly Cloudy,200,2013-04-13 15:00:00
1:30 AM,64.4,62.6,94,29.89,6.2,SSW,8.1,-,N/A,,Partly Cloudy,210,2013-04-13 15:30:00
2:00 AM,64.4,62.6,94,29.89,6.2,SSW,8.1,-,N/A,,Scattered Clouds,200,2013-04-13 16:00:00
2:30 AM,66.2,60.8,83,29.89,6.2,SSW,9.2,-,N/A,,Mostly Cloudy,200,2013-04-13 16:30:00
3:00 AM,65,61,83,29.89,16,SSW,9.2,,,,Partly Cloudy,200,2013-04-13 17:00:00
3:00 AM,66.2,60.8,83,29.89,6.2,SSW,9.2,-,N/A,,Mostly Cloudy,200,2013-04-13 17:00:00
3:30 AM,64.4,60.8,88,29.86,6.2,SSW,8.1,-,N/A,,Mostly Cloudy,210,2013-04-13 17:30:00
4:00 AM,64,61,88,29.88,,SSW,8.1,,,,,200,2013-04-13 18:00:00
4:00 AM,64.4,60.8,88,29.86,6.2,SSW,8.1,-,N/A,,Scattered Clouds,200,2013-04-13 18:00:00
4:30 AM,64.4,60.8,88,29.89,6.2,SSW,9.2,-,N/A,,Partly Cloudy,210,2013-04-13 18:30:00
5:00 AM,64.4,60.8,88,29.89,6.2,SSW,9.2,-,N/A,,Partly Cloudy,200,2013-04-13 19:00:00
5:30 AM,62.6,60.8,94,29.89,-9999.0,SSW,8.1,-,N/A,,Clear,200,2013-04-13 19:30:00
6:00 AM,64,60,84,29.90,19,SSW,8.1,,,,Partly Cloudy,200,2013-04-13 20:00:00
6:00 AM,64.4,60.8,88,29.89,-9999.0,SSW,8.1,-,N/A,,Clear,200,2013-04-13 20:00:00
6:30 AM,62.6,60.8,94,29.89,6.2,SSW,9.2,-,N/A,,Partly Cloudy,210,2013-04-13 20:30:00
7:00 AM,65,61,83,29.92,,SSW,10.4,,,,,200,2013-04-13 21:00:00
7:00 AM,66.2,60.8,83,29.92,6.2,SSW,10.4,-,N/A,,Partly Cloudy,200,2013-04-13 21:00:00
7:30 AM,68.0,60.8,78,29.92,6.2,SSW,10.4,-,N/A,,Partly Cloudy,200,2013-04-13 21:30:00
8:00 AM,69.8,62.6,78,29.92,6.2,SW,15.0,-,N/A,,Partly Cloudy,220,2013-04-13 22:00:00
8:30 AM,69.8,60.8,73,29.92,6.2,SSW,12.7,-,N/A,,Partly Cloudy,210,2013-04-13 22:30:00
9:00 AM,72,62,62,29.94,22,SSW,12.7,,,,Partly Cloudy,210,2013-04-13 23:00:00
9:00 AM,71.6,60.8,69,29.92,6.2,SSW,12.7,-,N/A,,Partly Cloudy,210,2013-04-13 23:00:00
9:30 AM,73.4,62.6,69,29.92,6.2,SSW,12.7,-,N/A,,Partly Cloudy,210,2013-04-13 23:30:00
10:00 AM,74,62,56,29.94,,SSW,10.4,,,,,210,2013-04-14 00:00:00
10:00 AM,73.4,60.8,65,29.92,6.2,SSW,10.4,-,N/A,,Partly Cloudy,210,2013-04-14 00:00:00
10:30 AM,75.2,62.6,65,29.92,6.2,SW,10.4,-,N/A,,Partly Cloudy,230,2013-04-14 00:30:00
11:00 AM,77.0,62.6,61,29.92,6.2,SSW,9.2,-,N/A,,Partly Cloudy,210,2013-04-14 01:00:00
11:30 AM,77.0,62.6,61,29.89,6.2,SSW,8.1,-,N/A,,Scattered Clouds,210,2013-04-14 01:30:00
12:00 PM,77,62,51,29.90,22,SSW,9.2,,,,Partly Cloudy,200,2013-04-14 02:00:00
12:00 PM,77.0,62.6,61,29.89,6.2,SSW,9.2,-,N/A,,Mostly Cloudy,200,2013-04-14 02:00:00
12:30 PM,78.8,60.8,54,29.86,6.2,SSW,9.2,-,N/A,,Mostly Cloudy,200,2013-04-14 02:30:00
1:00 PM,78,61,45,29.87,,East,6.9,,,,,100,2013-04-14 03:00:00
1:00 PM,78.8,60.8,54,29.86,6.2,East,6.9,-,N/A,,Mostly Cloudy,100,2013-04-14 03:00:00
1:30 PM,78.8,62.6,57,29.83,6.2,SE,6.9,-,N/A,,Mostly Cloudy,130,2013-04-14 03:30:00
2:00 PM,77.0,62.6,61,29.83,6.2,East,6.9,-,N/A,,Mostly Cloudy,90,2013-04-14 04:00:00
2:30 PM,77.0,62.6,61,29.83,6.2,East,8.1,-,N/A,,Mostly Cloudy,90,2013-04-14 04:30:00
3:00 PM,76,64,57,29.86,22,ENE,6.9,,,,Partly Cloudy,70,2013-04-14 05:00:00
3:00 PM,77.0,64.4,65,29.86,6.2,ENE,6.9,-,N/A,,Mostly Cloudy,70,2013-04-14 05:00:00
3:30 PM,75.2,62.6,65,29.86,6.2,East,5.8,-,N/A,,Mostly Cloudy,90,2013-04-14 05:30:00
4:00 PM,75,64,61,29.87,,East,6.9,,,,,100,2013-04-14 06:00:00
4:00 PM,75.2,64.4,69,29.86,-9999.0,East,6.9,-,N/A,,Clear,100,2013-04-14 06:00:00
4:30 PM,73.4,64.4,73,29.86,6.2,East,5.8,-,N/A,,Mostly Cloudy,90,2013-04-14 06:30:00
5:00 PM,73.4,66.2,78,29.86,6.2,East,8.1,-,N/A,,Mostly Cloudy,100,2013-04-14 07:00:00
5:30 PM,73.4,66.2,78,29.86,6.2,ESE,6.9,-,N/A,,Mostly Cloudy,110,2013-04-14 07:30:00
6:00 PM,73,66,72,29.88,19,ESE,6.9,,,,Partly Cloudy,120,2013-04-14 08:00:00
6:00 PM,73.4,66.2,78,29.86,-9999.0,ESE,6.9,-,N/A,,Clear,120,2013-04-14 08:00:00
6:30 PM,71.6,66.2,83,29.89,-9999.0,ENE,4.6,-,N/A,,Clear,70,2013-04-14 08:30:00
7:00 PM,72,66,77,29.90,,East,3.5,,,,,90,2013-04-14 09:00:00
7:00 PM,71.6,66.2,83,29.89,-9999.0,East,3.5,-,N/A,,Clear,90,2013-04-14 09:00:00
7:30 PM,71.6,66.2,83,29.89,6.2,ENE,2.3,-,N/A,,Mostly Cloudy,70,2013-04-14 09:30:00
8:00 PM,71.6,68.0,88,29.89,-9999.0,Calm,Calm,-,N/A,,Clear,0,2013-04-14 10:00:00
8:30 PM,69.8,66.2,88,29.92,-9999.0,Calm,Calm,-,N/A,,Clear,0,2013-04-14 10:30:00
9:00 PM,70,66,83,29.92,16,Calm,Calm,,,,Partly Cloudy,,2013-04-14 11:00:00
9:00 PM,69.8,66.2,88,29.92,6.2,Calm,Calm,-,N/A,,Scattered Clouds,0,2013-04-14 11:00:00
9:30 PM,68.0,66.2,94,29.92,-9999.0,West,5.8,-,N/A,,Clear,280,2013-04-14 11:30:00
10:00 PM,68,66,90,29.93,,WSW,4.6,,,,,240,2013-04-14 12:00:00
10:00 PM,68.0,66.2,94,29.92,6.2,WSW,4.6,-,N/A,,Partly Cloudy,240,2013-04-14 12:00:00
10:30 PM,68.0,64.4,88,29.92,6.2,SW,2.3,-,N/A,,Partly Cloudy,220,2013-04-14 12:30:00
11:00 PM,66.2,64.4,94,29.92,6.2,Calm,Calm,-,N/A,,Partly Cloudy,0,2013-04-14 13:00:00
11:30 PM,66.2,64.4,94,29.92,6.2,SW,4.6,-,N/A,,Partly Cloudy,230,2013-04-14 13:30:00